Regional Weather Roundup
Issued by NWS

Home | Current Version | Previous Version | Graphics & Text | Print | Product List | Glossary On
Versions: 1 2 3 4 5 6 7 8 9 10 11 12 13 14 15 16 17 18 19 20 21 22 23 24 25 26 27 28 29 30 31 32 33 34 35 36 37 38 39 40 41 42 43 44 45 46 47 48 49 50
000
ASUS43 KLMK 300510
RWRKY
KENTUCKY REGIONAL WEATHER ROUNDUP
NATIONAL WEATHER SERVICE LOUISVILLE KY
100 AM EDT THU MAR 30 2017

NOTE "FAIR" INDICATES FEW OR NO CLOUDS BELOW 12,000 FEET
WITH NO SIGNIFICANT WEATHER AND/OR OBSTRUCTIONS TO VISIBILITY.

KYZ001>023-026-027-061>063-070>075-300600-
WESTERN AND SOUTH CENTRAL KENTUCKY

CITY           SKY/WX    TMP DP  RH WIND       PRES   REMARKS
PADUCAH        CLEAR     69  55  60 SE9       29.76F
HENDERSON      CLOUDY    61  52  72 SE8       29.83F
OWENSBORO      CLOUDY    63  53  70 SE9       29.85F
HOPKINSVILLE   CLOUDY    69  59  72 SE5       29.84F
BOWLING GREEN  MOCLDY    63  55  75 CALM      29.87F
GLASGOW        MOCLDY    62  53  72 E6        29.89F
$$

KYZ024-025-028>034-038-045-046-053-300600-
NORTH CENTRAL KENTUCKY

CITY           SKY/WX    TMP DP  RH WIND       PRES   REMARKS
LOUISVILLE/SDF CLOUDY    57  45  64 E10       29.93F
LOUISVILLE/LOU MOCLDY    57  46  66 E9        29.94F
FORT KNOX      CLOUDY    57  48  72 E17       29.89F
$$

KYZ035>037-039>044-047>052-055>060-089>105-300600-
NORTHEAST KENTUCKY

CITY           SKY/WX    TMP DP  RH WIND       PRES   REMARKS
LEXINGTON      CLOUDY    53  44  71 E12G23    29.99F
COVINGTON      CLOUDY    53  43  68 SE14      29.98F
FRANKFORT      PTCLDY    53  44  71 E12       29.97F
$$

KYZ054-064>069-076>088-106>120-300600-
SOUTHEAST KENTUCKY

CITY           SKY/WX    TMP DP  RH WIND       PRES   REMARKS
JACKSON        CLEAR     51  45  79 NE5       30.01F
LONDON         CLEAR     59  47  64 NE6       29.98F
SOMERSET       CLOUDY    59  48  67 CALM      29.98S
MIDDLESBORO    CLEAR     54  51  90 CALM      30.00S
MONTICELLO     CLEAR     57  51  80 W8        29.97F
$$




USA.gov is the U.S. government's official web portal to all federal, state and local government web resources and services.